Location: Nemiskam
(49.4820°N, 111.2775°W)
Time: 02:25:51
(UTC+00:00)

Tiangong - Visible Passes

Search period start: 27 November 2022 00:00
Search period end: 07 December 2022 00:00
Orbit: 387 x 394 km, 41.5° (Epoch: 26 November)

Date Brightness Start Highest point End Pass type
(mag) Time Alt. Az. Time Alt. Az. Time Alt. Az.
02 Dec 0.3 01:25:48 10° SSW 01:27:26 13° SSE 01:27:30 13° SSE visible
03 Dec 0.7 00:29:30 10° SSE 00:29:46 10° SSE 00:30:01 10° SSE visible
03 Dec 0.6 02:03:38 10° SW 02:04:39 15° SSW 02:04:39 15° SSW visible
04 Dec 0.1 01:06:04 10° SSW 01:08:12 17° S 01:09:26 14° SE visible
05 Dec 0.5 00:08:41 10° SSW 00:10:26 14° SSE 00:12:11 10° SE visible
05 Dec 0.0 01:44:19 10° SW 01:46:31 19° S 01:46:31 19° S visible
06 Dec 0.1 00:46:31 10° SW 00:48:52 19° S 00:51:14 10° SE visible
06 Dec 1.1 02:23:06 10° SW 02:23:35 12° SW 02:23:35 12° SW visible
